Showing default

BEIDOU 3M20, 44865

Orbit data source: Space-Track

BEIDOU 3M20, 44865 is a payload satellite owned by CNSA (CN) in MEO that was launched on Mon, 16 Dec 2019 UTC via a CHANG ZHENG 3B/YZ-1 launch vehicle from the Xichang Space Center, China (XSC). Payload-class satellites include a variety of spacecraft equipped with specific instruments for various scientific and technological missions. These include communications satellites like Starlink; space stations such as the ISS; scientific satellites like the Hubble; Earth observation satellites from companies like Planet Labs, Umbra, and HawkEye 360; GPS; miniature CubeSats for education and research; and military/defense satellites.

Loading next visibility...
Identifier
44865, 2019-090B
Orbit
MEO
Country
Flag of CNCN / PRC
Related business
Manufacturer
CAST
Mission
Operational Defense Navigation
Bus & Motor
BD-3M, Unknown motor
Mass
1,014 kg wet, ~850 kg dry
Launch date (UTC)
2019-12-16 (6 years ago)
Launch vehicle
CHANG ZHENG 3B/YZ-1
Launch site
Xichang Space Center, China (XSC)
Object type
Payload
Rocket body
Debris
Shape & HBR
Box + 2 Pan, Unknown HBR
Radar Cross Section
8.984 m², Large (>1 m²)

Expand to show TLE details & history
Last TLE update: 2 days ago

TLE from 2 days ago
0 BEIDOU 3M20
1 44865U 19090B   25295.16108878 -.00000037  00000-0  00000-0 0  9999
2 44865  56.3507  70.7055 0013283 299.3103 219.9406  1.86231595 39781
Epoch: 2025-10-22T03:51Z
TLE epoch observation values (Epoch: 2025-10-22T03:51:58.070Z)
Latitude
17.19862°
Longitude
149.97611°
Altitude
21,556.38 km
Speed
3.776 km/s
True Right ascension
15h 55m 13s
True Declination
17° 10' 26"
Sunlit
Object was in daylight at epoch
Visualization orbit readout
Latitude
Unknown
Longitude
Unknown
Altitude
Unknown
Speed
Unknown
Apparent Right ascension
Unknown
Apparent Declination
Unknown
Sunlit
N/A
Visualization observer readout
Local Sidereal Time
01:29:23
Azimuth
Unknown
Elevation
Unknown
Doppler factor
Unknown
Orbital elements
Apogee altitude
21,565.015 km
Perigee altitude
21,490.879 km
Semi-major axis
27,906.084 km
Eccentricity
0.00133
Inclination
56.3507°
RAAN
70.7055°
Arg. of periapsis
299.3103°
True anomaly
219.84301°
Mean anomaly
219.9406°
Eccentric anomaly
219.89179°
Mean motion
0.46558 °/min
Orbital period
773.23 mins
BSTAR
0
Loading maneuver chart data...
Computing Atmospheric mass density...
Loading historical data...
Loading historical data...
Loading historical data...
Loading historical data...
Loading historical data...
Loading historical data...
Loading historical data...
Other satellites on launch #90 in the year 2019 (2019-12-16 UTC)

Documentation

Showing up to 5 results
|